Minneapolis Flying Cloud, MN

10:33 AM CST on December 12, 2019 (GMT -0600)
Flying Cloud

Weather History for KFCM - August, 2019

Change the Weather History Date:

Saturday, August 31, 2019

  Actual Average Record
Temperature  
Mean Temperature 64 °F -  
Max Temperature 71 °F 78 °F 90 °F (2013)
Min Temperature 57 °F 57 °F 51 °F (2003)
Degree Days  
Heating Degree Days 1    
Growing Degree Days 14 (Base 50)    
Moisture  
Dew Point 53 °F    
Average Humidity 71    
Maximum Humidity 84    
Minimum Humidity 49    
Precipitation  
Precipitation 0.00 in - - ()
Sea Level Pressure  
Sea Level Pressure 30.23 in    
Wind  
Wind Speed 4 mph (SSE)    
Max Wind Speed 9 mph    
Max Gust Speed -    
Visibility 10 miles    
Events      
Averages and records for this station are not official NWS values.
T = Trace of Precipitation, MM = Missing Value Source: NWS Daily Summary

Daily Weather History Graph

Daily Weather History Graph

Search for Another Location

Airport or City:

Astronomy

Aug. 31, 2019 Rise Set
Actual Time 6:34 AM CDT 7:52 PM CDT
Civil Twilight 6:04 AM CDT 8:23 PM CDT
Nautical Twilight 5:27 AM CDT 8:59 PM CDT
Astronomical Twilight 4:48 AM CDT 9:38 PM CDT
Moon 7:52 AM CDT (8/31) 9:02 PM CDT (8/31)
Length of Visible Light 14h 18m
Length of Day
13h 18m
New Moon, 3% of the Moon is Illuminated
Aug 31
New Moon
Sep 5
First Quarter
Sep 13
Full
Sep 21
Last Quarter
Sep 28
New

Hourly Weather History & Observations

Time (CDT) Temp. Dew Point Humidity Pressure Visibility Wind Dir Wind Speed Gust Speed Precip Events Conditions
12:53 AM 59.0 °F 53.1 °F 81% 30.25 in 10.0 mi NNE 3.5 mph - N/A   Clear
1:53 AM 57.9 °F 52.0 °F 81% 30.25 in 10.0 mi ENE 3.5 mph - N/A   Clear
2:53 AM 57.9 °F 52.0 °F 81% 30.25 in 10.0 mi Calm Calm - N/A   Clear
3:53 AM 57.9 °F 52.0 °F 81% 30.25 in 10.0 mi ESE 3.5 mph - N/A   Clear
4:53 AM 57.9 °F 52.0 °F 81% 30.25 in 10.0 mi ESE 4.6 mph - N/A   Clear
5:53 AM 57.0 °F 52.0 °F 83% 30.24 in 10.0 mi East 3.5 mph - N/A   Clear
6:53 AM 57.9 °F 52.0 °F 81% 30.25 in 10.0 mi East 3.5 mph - N/A   Clear
7:53 AM 57.9 °F 53.1 °F 84% 30.26 in 10.0 mi Calm Calm - N/A   Clear
8:53 AM 59.0 °F 54.0 °F 83% 30.26 in 10.0 mi ESE 3.5 mph - N/A   Clear
9:53 AM 62.1 °F 54.0 °F 75% 30.27 in 10.0 mi SE 3.5 mph - N/A   Clear
10:53 AM 64.0 °F 55.0 °F 73% 30.27 in 10.0 mi SSE 5.8 mph - N/A   Partly Cloudy
11:53 AM 68.0 °F 53.1 °F 59% 30.27 in 10.0 mi South 4.6 mph - N/A   Overcast
12:53 PM 69.1 °F 53.1 °F 57% 30.26 in 10.0 mi South 8.1 mph - N/A   Overcast
1:53 PM 70.0 °F 52.0 °F 53% 30.25 in 10.0 mi SE 9.2 mph - N/A   Partly Cloudy
2:53 PM 71.1 °F 51.1 °F 49% 30.23 in 10.0 mi SSE 8.1 mph - N/A   Partly Cloudy
3:53 PM 71.1 °F 53.1 °F 53% 30.21 in 10.0 mi SE 5.8 mph - N/A   Overcast
4:53 PM 70.0 °F 52.0 °F 53% 30.20 in 10.0 mi South 9.2 mph - N/A   Overcast
5:53 PM 69.1 °F 53.1 °F 57% 30.19 in 10.0 mi South 5.8 mph - N/A   Overcast
6:53 PM 66.9 °F 55.0 °F 66% 30.19 in 10.0 mi SW 9.2 mph - N/A   Overcast
7:53 PM 66.0 °F 55.9 °F 70% 30.19 in 10.0 mi SSW 4.6 mph - N/A   Overcast
8:53 PM 64.9 °F 55.9 °F 73% 30.20 in 10.0 mi SSW 3.5 mph - N/A   Overcast
9:53 PM 64.0 °F 55.0 °F 73% 30.19 in 10.0 mi South 3.5 mph - N/A   Overcast
10:53 PM 62.1 °F 55.0 °F 78% 30.19 in 10.0 mi SSE 5.8 mph - N/A   Overcast
11:53 PM 61.0 °F 54.0 °F 78% 30.18 in 10.0 mi SSE 4.6 mph - N/A   Mostly Cloudy